Date String (YYYY-MM-DD hh:mm:ss) UTC,Instrument flags,Ambient pressure (hPa),Sample flow (lpm),Bypass flow (lpm),Sample temperature (°C),Ambient temperature (°C),ASC tube jacket temperature (°C),LED temperature (°C),Box temperature (°C),Sample RH (%),Span deviation,Mass concentration (μg/m³),Mass concentration (μg/m³),Mass concentration (μg/m³)
DateTimeUTC,F1_M11,P_M11,Q1_M11,Q2_M11,T1_M11,T2_M11,T3_M11,T4_M11,T5_M11,U1_M11,ZSPAN_M11,X0_M11,X2_M11,X1_M11
2023-01-03 13:00:00,,0816.5,5.01,0.00,22.2,21.1,00.0,31.1,23.8,11.1,0000.0,0001.96,0001.91,0001.90
2023-01-03 13:01:00,,0816.5,4.98,0.00,22.1,20.8,00.0,31.0,23.7,11.1,0000.0,0001.95,0001.90,0001.89
2023-01-03 13:02:00,,0816.5,4.98,0.00,22.1,20.6,00.0,31.0,23.7,11.1,0000.0,0001.91,0001.86,0001.85
2023-01-03 13:03:00,,0816.5,5.06,0.00,22.0,20.5,00.0,31.0,23.5,11.1,0000.0,0001.89,0001.84,0001.82
2023-01-03 13:04:00,,0816.4,4.99,0.00,22.0,20.4,00.0,31.0,23.5,11.1,0000.0,0001.89,0001.83,0001.82
2023-01-03 13:05:00,,0816.5,5.02,0.00,22.0,20.7,00.0,30.9,23.5,11.1,0000.0,0001.86,0001.81,0001.80
2023-01-03 13:06:00,,0816.4,5.00,0.00,22.1,21.7,00.0,30.9,23.8,11.0,0000.0,0001.88,0001.82,0001.81
2023-01-03 13:07:00,,0816.5,5.00,0.00,22.2,22.5,00.0,30.9,24.1,11.0,0000.0,0001.90,0001.85,0001.84
2023-01-03 13:08:00,,0816.4,5.02,0.00,22.3,23.1,00.0,30.9,24.3,10.9,0000.0,0001.92,0001.87,0001.86
2023-01-03 13:09:00,,0816.5,4.97,0.00,22.3,22.6,00.0,31.0,24.2,10.8,0000.0,0001.93,0001.89,0001.87
2023-01-03 13:10:00,,0816.4,4.97,0.00,22.3,22.1,00.0,31.1,24.1,10.8,0000.0,0001.95,0001.91,0001.90
2023-01-03 13:11:00,,0816.4,5.06,0.00,22.3,21.6,00.0,31.1,24.0,10.8,0000.0,0002.04,0002.00,0001.98
2023-01-03 13:12:00,,0816.5,5.02,0.00,22.2,21.2,00.0,31.1,23.9,10.8,0000.0,0002.14,0002.09,0002.07
2023-01-03 13:13:00,,0816.5,4.99,0.00,22.2,21.0,00.0,31.1,23.8,10.8,0000.0,0002.25,0002.20,0002.17
2023-01-03 13:14:00,,0816.4,4.97,0.00,22.2,20.8,00.0,31.1,23.8,10.8,0000.0,0002.33,0002.30,0002.28
2023-01-03 13:15:00,,0816.5,5.07,0.00,22.1,20.7,00.0,31.1,23.7,10.8,0000.0,0002.34,0002.34,0002.32
2023-01-03 13:16:00,,0816.4,4.97,0.00,22.1,20.6,00.0,31.0,23.6,10.9,0000.0,0002.39,0002.39,0002.37
2023-01-03 13:17:00,,0816.5,5.01,0.00,22.0,20.5,00.0,31.0,23.6,10.9,0000.0,0002.44,0002.44,0002.41
2023-01-03 13:18:00,,0816.4,5.01,0.00,22.0,20.5,00.0,31.0,23.5,11.0,0000.0,0002.47,0002.46,0002.43
2023-01-03 13:19:00,,0816.5,4.99,0.00,22.0,21.4,00.0,30.9,23.8,10.9,0000.0,0002.49,0002.46,0002.43
2023-01-03 13:20:00,,0816.4,5.00,0.00,22.2,22.3,00.0,30.9,24.1,10.9,0000.0,0002.50,0002.45,0002.41
2023-01-03 13:21:00,,0816.5,4.98,0.00,22.3,22.7,00.0,31.0,24.2,10.9,0000.0,0002.48,0002.43,0002.39
2023-01-03 13:22:00,,0816.4,4.98,0.00,22.3,22.2,00.0,31.0,24.2,10.9,0000.0,0002.42,0002.36,0002.32
2023-01-03 13:23:00,,0816.5,5.01,0.00,22.3,21.6,00.0,31.0,24.0,10.9,0000.0,0002.33,0002.28,0002.24
2023-01-03 13:24:00,,0816.4,5.05,0.00,22.2,21.3,00.0,31.1,23.9,10.9,0000.0,0002.23,0002.19,0002.15
2023-01-03 13:25:00,,0816.4,5.01,0.00,22.2,21.0,00.0,31.1,23.8,10.9,0000.0,0002.15,0002.09,0002.06
2023-01-03 13:26:00,,0816.4,4.98,0.00,22.2,20.8,00.0,31.1,23.8,11.0,0000.0,0002.08,0002.02,0001.98
2023-01-03 13:27:00,,0816.4,5.05,0.00,22.1,20.6,00.0,31.0,23.7,11.1,0000.0,0001.99,0001.92,0001.89
2023-01-03 13:28:00,,0816.4,4.97,0.00,22.1,20.5,00.0,31.0,23.6,11.1,0000.0,0001.87,0001.80,0001.77
2023-01-03 13:29:00,,0816.4,5.00,0.00,22.0,20.5,00.0,31.0,23.5,11.1,0000.0,0001.75,0001.69,0001.66
2023-01-03 13:30:00,,0816.4,4.99,0.00,22.0,20.6,00.0,31.0,23.5,11.2,0000.0,0001.65,0001.59,0001.57
2023-01-03 13:31:00,,0816.4,5.00,0.00,22.0,21.6,00.0,30.9,23.8,11.2,0000.0,0001.55,0001.51,0001.50
2023-01-03 13:32:00,,0816.4,5.01,0.00,22.2,22.5,00.0,30.9,24.1,11.1,0000.0,0001.48,0001.44,0001.44
2023-01-03 13:33:00,,0816.4,4.99,0.00,22.3,23.1,00.0,30.9,24.3,11.1,0000.0,0001.40,0001.37,0001.37
2023-01-03 13:34:00,,0816.4,4.98,0.00,22.4,22.7,00.0,31.0,24.3,11.0,0000.0,0001.31,0001.29,0001.28
2023-01-03 13:35:00,,0816.4,5.01,0.00,22.4,22.1,00.0,31.1,24.2,11.0,0000.0,0001.24,0001.21,0001.21
2023-01-03 13:36:00,,0816.4,5.01,0.00,22.3,21.6,00.0,31.1,24.1,11.0,0000.0,0001.17,0001.14,0001.14
2023-01-03 13:37:00,,0816.4,5.00,0.00,22.3,21.2,00.0,31.1,24.0,11.0,0000.0,0001.12,0001.09,0001.09
2023-01-03 13:38:00,,0816.4,4.99,0.00,22.2,21.0,00.0,31.1,23.9,11.0,0000.0,0001.09,0001.05,0001.05
2023-01-03 13:39:00,,0816.4,5.01,0.00,22.2,20.8,00.0,31.1,23.8,11.1,0000.0,0001.06,0001.02,0001.02
2023-01-03 13:40:00,,0816.4,5.02,0.00,22.1,20.6,00.0,31.1,23.7,11.1,0000.0,0001.02,0000.98,0000.98
2023-01-03 13:41:00,,0816.4,5.00,0.00,22.1,20.5,00.0,31.1,23.7,11.1,0000.0,0000.99,0000.95,0000.95
2023-01-03 13:42:00,,0816.3,5.00,0.00,22.0,20.4,00.0,31.0,23.6,11.2,0000.0,0000.93,0000.90,0000.90
2023-01-03 13:43:00,,0816.3,5.01,0.00,22.0,20.8,00.0,31.0,23.7,11.2,0000.0,0000.90,0000.86,0000.86
2023-01-03 13:44:00,,0816.3,4.99,0.00,22.1,21.8,00.0,31.0,23.9,11.2,0000.0,0000.95,0000.86,0000.83
2023-01-03 13:45:00,,0816.3,5.00,0.00,22.3,22.6,00.0,31.0,24.2,11.1,0000.0,0001.13,0000.86,0000.81
2023-01-03 13:46:00,,0816.3,4.98,0.00,22.3,22.5,00.0,31.0,24.3,11.0,0000.0,0001.17,0000.86,0000.79
2023-01-03 13:47:00,,0816.2,5.00,0.00,22.3,22.0,00.0,31.1,24.2,11.0,0000.0,0001.16,0000.85,0000.78
2023-01-03 13:48:00,,0816.3,5.01,0.00,22.3,21.6,00.0,31.1,24.0,11.0,0000.0,0001.15,0000.84,0000.77
2023-01-03 13:49:00,,0816.3,4.99,0.00,22.3,21.2,00.0,31.1,24.0,11.1,0000.0,0001.16,0000.85,0000.77
2023-01-03 13:50:00,,0816.3,5.00,0.00,22.2,20.9,00.0,31.1,23.9,11.1,0000.0,0001.21,0000.87,0000.79
2023-01-03 13:51:00,,0816.4,5.00,0.00,22.2,20.7,00.0,31.1,23.8,11.1,0000.0,0001.35,0000.89,0000.80
2023-01-03 13:52:00,,0816.4,4.99,0.00,22.1,20.6,00.0,31.1,23.8,11.1,0000.0,0001.41,0000.91,0000.81
2023-01-03 13:53:00,,0816.4,5.01,0.00,22.1,20.5,00.0,31.1,23.7,11.1,0000.0,0001.43,0000.93,0000.83
2023-01-03 13:54:00,,0816.3,5.01,0.00,22.1,20.4,00.0,31.0,23.6,11.1,0000.0,0001.44,0000.95,0000.85
2023-01-03 13:55:00,,0816.4,5.00,0.00,22.0,20.6,00.0,31.0,23.7,11.1,0000.0,0001.43,0000.96,0000.88
2023-01-03 13:56:00,,0816.4,5.01,0.00,22.1,21.6,00.0,31.0,23.9,11.1,0000.0,0001.22,0000.95,0000.90
2023-01-03 13:57:00,,0816.4,4.99,0.00,22.2,22.6,00.0,31.0,24.2,11.0,0000.0,0001.16,0000.94,0000.91
2023-01-03 13:58:00,,0816.4,5.01,0.00,22.4,22.8,00.0,31.0,24.3,10.9,0000.0,0001.19,0000.96,0000.93
2023-01-03 13:59:00,,0816.4,4.98,0.00,22.4,22.3,00.0,31.1,24.2,10.9,0000.0,0001.20,0000.97,0000.94
